Tracking 19170 objects as of 22-May-2018
HD Live streaming from Space Station
objects crossing your sky now

COSMOS 88

Track COSMOS 88 now!
10-day predictions
COSMOS 88 is classified as:


NORAD ID: 1586
Int'l Code: 1965-073C
Perigee: 1,352.5 km
Apogee: 1,647.0 km
Inclination: 56.1 °
Period: 115.8 minutes
Semi major axis: 7870 km
RCS: 0.335 m2 (medium)
Launch date: September 18, 1965
Source: Commonwealth of Independent States (former USSR) (CIS)
Launch site: TYURATAM MISSILE AND SPACE COMPLEX (TTMTR)
aabbcc
Your satellite tracking list
Your tracking list is empty




NASA's NSSDC Master Catalog

Two Line Element Set (TLE):
1 01586U 65073C   18141.84403847 -.00000074  00000-0  13285-3 0  9998
2 01586  56.0613 324.8086 0187046 201.3540 260.6555 12.43311732392319
Source of the keplerian elements: AFSPC